Location: Audinghen
(50.8518°N, 1.6129°E)
Time: 08:12:57
(UTC+00:00)

SL-14 R/B - Pass Details

Date: 07 August 2020
Orbit: 517 x 555 km, 82.4° (Epoch: 26 September)

Event Time Altitude Azimuth Distance (km) Brightness Sun altitude
Rises 02:56:14 0° 341° (NNW) 2,708 7.3 -12.5°
Reaches altitude 10° 02:58:34 10° 331° (NNW) 1,804 6.2 -12.2°
Maximum altitude 03:02:03 30° 269° (W) 970 4.2 -11.9°
Enters shadow 03:04:15 18° 219° (SW) 1,359 4.7 -11.6°
